Location: Boiro
(42.6475°N, 8.8834°W)
Time: 19:26:13
(UTC+01:00)

Transit 2A Rocket - Pass Details

Date: 30 November 2021
Orbit: 585 x 917 km, 66.7° (Epoch: 26 January)

Event Time Altitude Azimuth Distance (km) Brightness Sun altitude
Rises 11:52:42 0° 260° (W) 3,368 8.2 22.3°
Reaches altitude 10° 11:55:50 10° 277° (W) 2,492 7.4 22.5°
Maximum altitude 11:59:56 19° 322° (NW) 1,970 6.7 22.8°
Drops below altitude 10° 12:04:10 10° 7° (N) 2,597 7.3 23.0°
Sets 12:07:32 0° 24° (NNE) 3,560 8.0 23.2°
